Location: Chaumontel
(49.1247°N, 2.4324°E)
Time: 08:46:30
(UTC+00:00)

Cosmos 1869 - Pass Details

Date: 03 February 2023
Orbit: 510 x 550 km, 82.5° (Epoch: 23 March)

Event Time Altitude Azimuth Distance (km) Brightness Sun altitude
Rises 18:54:43 0° 346° (NNW) 2,662 7.0 -20.6°
Reaches altitude 10° 18:56:53 10° 342° (NNW) 1,776 6.1 -20.9°
Maximum altitude 19:00:41 56° 265° (W) 639 3.9 -21.5°
Drops below altitude 10° 19:04:32 10° 187° (S) 1,787 6.0 -22.2°
Sets 19:06:43 0° 183° (S) 2,681 6.9 -22.5°
